Location: *
(32.8140°S, 174.6161°E)
Time: 12:47:05
(UTC+00:00)

ADEOS - Pass Details

Date: 10 December 2019
Orbit: 792 x 795 km, 98.9° (Epoch: 18 January)

Event Time Altitude Azimuth Distance (km) Brightness Sun altitude
Exits shadow 16:04:07 - 346° (NNW) 2,483 5.7 -11.8°
Reaches altitude 10° 16:04:28 10° 344° (NNW) 2,356 5.5 -11.8°
Maximum altitude 16:09:12 35° 279° (W) 1,265 4.2 -11.0°
Drops below altitude 10° 16:14:00 10° 213° (SSW) 2,384 6.1 -10.2°
Sets 16:16:33 0° 204° (SSW) 3,322 7.0 -9.7°
